Wind_Speed
18 20 20 20 20 20 22 22 22 21 19 18 17 17 15 14 13 13 13 13 12 12 12 13 13 14 14 15 14 15 15 16 17 17 18 18 19 19 20 21 21 21 22
19 20 20 20 19 19 21 22 23 22 21 20 20 18 16 15 14 14 14 14 14 14 14 15 15 15 15 16 16 16 17 18 18 18 19 19 19 20 21 22 22 23 23
21 22 21 20 19 19 20 21 22 22 22 22 21 20 18 17 16 15 15 16 15 15 16 16 16 17 17 17 17 18 18 19 19 19 19 19 20 21 22 22 23 24 25
23 23 22 21 20 20 21 22 22 22 22 22 21 20 19 18 17 16 16 16 17 17 17 17 17 17 17 18 18 19 19 20 20 20 20 21 22 23 23 24 24 24 24
23 23 23 23 21 21 20 21 21 21 22 22 21 20 19 19 18 17 16 16 17 18 18 18 17 16 16 16 17 18 19 20 20 21 22 22 24 24 24 25 25 25 26
24 24 24 24 24 23 22 21 21 21 21 22 21 20 20 20 19 18 17 17 17 17 17 17 17 17 17 17 17 18 19 20 21 22 23 24 26 26 26 26 26 26 26
25 24 25 25 25 25 25 24 24 23 23 23 22 22 21 21 21 19 18 18 17 17 17 17 17 16 17 17 17 17 19 20 22 23 23 25 25 24 24 24 24 24 25
26 25 26 26 26 26 26 26 25 24 24 24 24 23 22 23 22 20 19 18 17 17 17 16 16 16 16 17 19 21 23 24 25 27 27 28 28 26 25 24 24 25 25
28 26 28 28 28 28 27 26 26 25 23 23 24 23 23 23 23 21 20 19 18 17 17 17 17 18 18 20 22 23 24 25 26 27 28 29 29 27 26 26 26 26 26
30 28 29 30 29 28 28 27 27 26 24 23 24 24 24 24 23 23 22 21 20 20 19 20 20 21 22 23 24 24 24 24 24 22 23 25 25 26 26 26 27 27 27
31 31 30 30 30 29 28 27 27 27 26 24 23 23 24 24 24 25 25 24 24 23 23 24 24 25 26 26 26 26 26 24 22 20 21 21 21 22 23 24 25 26 27
33 33 32 31 30 30 29 27 27 28 27 25 24 23 23 24 24 26 26 27 27 27 28 28 29 29 29 29 29 29 28 27 25 21 22 21 21 22 23 24 26 27 28
36 35 34 33 32 32 30 29 28 29 29 27 26 25 24 24 25 26 27 28 28 29 30 31 32 33 32 31 31 31 31 30 28 25 25 25 24 25 26 27 28 30 31
36 35 36 36 35 34 32 31 30 30 30 30 29 28 27 26 26 26 27 28 29 31 31 32 33 34 34 33 33 33 32 31 31 29 29 29 29 29 29 29 31 32 33
35 35 36 38 37 36 34 32 31 31 31 31 31 31 30 29 29 29 28 28 29 30 31 32 33 33 33 34 35 35 34 33 32 32 32 33 32 32 32 32 33 34 35
33 34 36 38 38 37 35 33 33 32 32 33 33 33 33 32 31 31 31 30 30 30 31 32 33 33 34 35 36 36 35 34 34 33 34 34 34 34 34 34 35 35 36
32 34 34 36 38 37 36 34 34 33 33 34 34 35 35 34 34 34 33 32 32 33 33 33 35 35 34 35 35 35 35 35 35 34 33 33 33 34 35 35 36 37 38
33 34 34 34 35 36 37 37 36 35 35 35 35 36 36 35 36 36 35 35 35 35 35 36 36 35 34 34 34 35 35 35 34 33 33 33 34 35 36 37 38 39 40
36 36 36 34 33 35 37 38 39 38 37 37 36 36 36 36 37 37 37 37 37 37 37 37 37 36 35 35 35 36 35 35 35 35 35 36 37 38 39 40 41 42 44
38 39 39 36 34 35 35 37 38 39 38 38 37 36 36 36 36 37 37 38 38 39 39 39 39 38 37 37 38 37 37 37 38 38 39 40 41 42 43 44 44 46 47
40 43 43 41 37 37 35 35 37 39 40 39 37 37 37 36 36 36 37 39 40 40 39 40 39 39 39 40 40 40 41 42 42 42 42 43 44 44 45 46 47 49 50
40 44 46 45 42 40 38 38 40 40 39 38 38 39 38 37 37 37 38 39 40 40 40 40 40 39 40 41 42 43 44 45 45 46 46 46 46 47 47 48 50 52 54
42 44 46 47 46 45 43 42 42 40 39 39 40 40 40 39 39 38 38 39 40 40 40 40 40 40 41 43 44 46 47 48 47 47 47 47 48 49 50 51 53 55 57
47 46 46 47 49 48 47 45 43 41 41 41 42 42 41 40 39 38 38 39 40 40 41 41 41 42 43 44 46 48 49 50 49 48 47 48 49 50 52 53 55 57 59
52 51 49 49 50 50 48 47 46 44 43 43 43 41 40 40 38 38 38 39 40 41 41 42 43 44 46 47 48 49 50 50 49 49 48 49 51 52 53 54 55 58 61
57 55 53 52 51 49 49 48 47 46 44 44 43 42 41 40 39 38 38 39 40 40 41 43 44 46 48 49 50 50 50 49 50 51 51 51 51 52 54 56 59 61 63
Wind_Direction
251 250 250 251 252 253 253 253 254 256 260 265 269 273 273 266 262 264 266 264 258 255 256 259 263 267 270 273 275 276 277 276 276 276 276 274 273 272 272 274 277 279 281
251 251 249 248 249 251 251 251 252 255 259 263 266 269 269 263 258 260 263 261 259 258 259 263 267 272 275 276 277 278 278 278 279 280 279 278 277 277 277 277 278 279 280
253 252 251 250 250 252 253 253 252 254 256 258 262 266 266 261 256 257 259 259 261 262 264 266 269 273 275 277 278 278 278 279 281 282 281 282 282 280 280 280 280 280 281
254 256 257 258 255 253 253 253 254 254 254 254 256 261 262 258 253 253 256 258 262 266 269 270 272 275 277 279 278 278 278 277 277 277 277 277 277 277 277 278 279 280 281
256 259 260 261 259 256 254 254 256 256 256 256 256 259 259 256 251 251 254 258 262 265 268 269 272 275 277 278 279 279 279 278 277 276 275 274 273 273 274 275 276 278 279
256 259 260 261 262 263 263 261 258 257 257 258 259 259 257 255 251 251 254 257 261 264 266 268 270 272 275 276 278 279 279 279 279 278 278 277 276 277 277 277 277 278 279
256 258 260 261 264 267 269 268 266 263 262 260 259 258 256 254 251 250 253 256 260 262 264 264 266 268 269 272 276 279 280 280 280 280 280 279 278 278 278 278 278 279 281
254 256 259 262 266 269 270 271 270 270 269 263 259 257 256 254 251 249 251 254 256 259 259 258 258 260 266 273 279 283 285 285 284 281 279 277 276 276 277 278 279 280 282
254 255 258 261 265 268 272 274 275 275 272 267 263 260 259 257 255 251 251 252 252 253 253 251 252 258 267 276 283 288 291 291 289 285 282 277 276 276 277 279 281 282 283
256 256 259 262 265 268 272 276 280 280 277 272 267 264 262 261 259 256 254 254 253 251 250 250 254 261 269 277 284 290 293 295 294 292 286 281 278 277 277 278 280 281 283
256 257 259 264 267 269 271 275 278 279 278 274 270 267 265 264 264 262 260 258 257 255 254 255 258 263 270 276 282 287 291 291 292 293 286 282 279 278 279 281 282 284 286
256 258 259 262 266 268 270 273 274 276 276 274 271 270 269 269 269 268 266 263 262 261 260 261 262 265 269 274 280 284 287 288 286 285 281 281 279 279 281 284 287 289 290
256 257 259 260 262 265 267 270 272 273 273 270 269 270 272 273 274 273 272 269 267 267 267 267 266 268 269 272 276 280 283 285 284 280 279 280 280 282 284 287 290 291 293
255 256 258 259 260 262 265 267 270 271 271 270 269 270 271 274 277 280 279 277 274 273 273 274 274 273 272 272 274 278 280 282 283 281 278 278 279 282 285 288 291 294 295
257 255 255 257 258 260 263 265 268 269 269 270 271 272 273 275 279 281 281 280 278 277 279 280 281 279 276 273 272 275 278 280 282 282 279 278 278 281 285 289 292 295 296
257 257 255 256 257 259 262 263 265 267 267 268 270 272 274 277 280 281 281 280 279 279 281 283 284 283 279 275 274 275 277 279 282 282 281 280 280 282 286 290 293 295 297
256 258 257 256 257 258 261 262 264 265 265 266 268 272 275 277 280 282 282 280 280 280 282 284 284 283 281 280 279 278 279 281 283 284 283 282 283 286 289 292 294 297 298
255 258 259 258 258 258 259 261 263 264 265 266 268 271 273 275 278 280 281 280 280 281 282 284 284 283 282 282 282 280 281 284 285 286 285 285 287 290 292 294 296 297 298
254 257 259 258 257 258 259 260 262 264 266 267 268 270 273 275 277 279 280 280 281 281 281 283 284 282 281 282 282 282 282 285 287 287 287 288 289 291 293 295 296 297 297
252 254 257 258 257 257 258 261 263 264 266 267 269 271 273 275 277 280 281 281 281 282 282 283 284 282 280 280 281 282 283 285 287 288 289 289 291 292 293 294 295 295 296
249 251 254 257 256 256 257 260 262 264 265 266 269 271 273 275 278 280 281 280 281 281 281 283 284 283 281 281 281 282 284 287 287 288 289 290 290 291 292 293 293 294 294
250 250 251 254 254 255 257 257 259 261 265 269 271 272 273 275 277 279 281 282 282 281 280 281 283 283 283 282 283 284 286 287 288 289 289 289 290 291 291 292 292 293 293
252 250 250 250 252 253 254 256 258 262 266 268 270 272 273 274 276 280 283 283 283 281 279 280 282 283 283 283 284 286 287 287 288 288 289 290 292 293 294 294 294 294 294
254 252 251 249 249 250 252 255 258 260 263 265 268 271 273 275 277 280 281 281 281 280 279 280 282 283 283 284 285 287 288 289 289 290 292 293 294 294 295 295 295 296 296
253 252 251 250 249 249 250 252 255 257 259 262 266 270 272 274 275 277 279 280 280 280 281 281 283 284 285 286 287 287 288 289 290 291 293 293 294 294 294 294 294 295 296
251 251 250 249 249 249 249 250 252 254 257 260 264 267 269 271 274 276 278 280 281 281 282 283 285 286 287 288 289 290 290 291 292 293 293 293 293 294 294 295 296 296 295
Height
5851 5851 5853 5853 5854 5855 5856 5857 5858 5859 5859 5859 5859 5859 5859 5858 5859 5859 5859 5860 5860 5860 5861 5861 5861 5861 5861 5861 5861 5861 5861 5861 5861 5861 5862 5862 5861 5861 5861 5860 5860 5860 5860
5848 5849 5850 5850 5851 5852 5852 5853 5854 5855 5856 5857 5857 5857 5857 5857 5857 5857 5857 5858 5858 5858 5858 5859 5859 5859 5859 5859 5859 5859 5859 5858 5858 5858 5858 5858 5858 5858 5858 5857 5857 5857 5857
5845 5846 5847 5848 5849 5850 5850 5850 5851 5852 5853 5854 5854 5854 5854 5854 5854 5855 5855 5855 5855 5856 5856 5856 5856 5857 5857 5857 5857 5857 5856 5856 5856 5856 5856 5856 5855 5855 5855 5854 5854 5854 5853
5842 5843 5844 5846 5847 5847 5848 5848 5849 5849 5850 5851 5851 5852 5852 5852 5852 5852 5852 5852 5853 5853 5853 5853 5854 5854 5854 5854 5854 5854 5854 5854 5853 5853 5852 5852 5852 5851 5851 5851 5850 5850 5849
5839 5839 5841 5842 5843 5844 5844 5845 5846 5846 5847 5848 5848 5848 5849 5849 5849 5849 5849 5849 5850 5850 5851 5851 5851 5851 5851 5851 5851 5851 5851 5851 5850 5849 5849 5848 5847 5847 5846 5846 5846 5845 5845
5835 5836 5837 5838 5839 5840 5841 5842 5842 5843 5844 5844 5845 5845 5845 5845 5846 5846 5846 5846 5847 5847 5847 5848 5848 5848 5848 5848 5848 5848 5848 5847 5846 5846 5845 5844 5843 5843 5842 5842 5841 5840 5840
5831 5833 5833 5834 5835 5836 5837 5838 5838 5839 5840 5840 5840 5841 5841 5842 5842 5842 5843 5843 5843 5844 5844 5844 5845 5845 5845 5845 5845 5844 5844 5843 5843 5842 5841 5840 5839 5839 5838 5837 5836 5836 5835
5827 5829 5829 5830 5831 5832 5832 5833 5834 5835 5835 5836 5836 5836 5837 5837 5838 5838 5839 5840 5840 5840 5841 5841 5841 5841 5842 5842 5842 5841 5841 5839 5838 5837 5837 5835 5834 5834 5833 5833 5832 5831 5830
5823 5825 5825 5827 5828 5828 5829 5830 5830 5831 5831 5831 5832 5832 5833 5833 5834 5834 5835 5836 5836 5837 5837 5837 5838 5838 5838 5839 5838 5838 5836 5835 5833 5832 5831 5830 5829 5829 5828 5828 5827 5826 5825
5818 5821 5821 5823 5824 5825 5826 5826 5827 5827 5827 5828 5828 5828 5829 5829 5830 5830 5831 5832 5833 5833 5833 5834 5834 5834 5835 5835 5835 5834 5832 5831 5829 5827 5826 5824 5824 5824 5823 5823 5822 5821 5820
5813 5815 5817 5818 5819 5820 5822 5822 5823 5823 5824 5824 5824 5825 5825 5826 5826 5826 5827 5828 5829 5829 5830 5830 5830 5830 5830 5830 5830 5830 5828 5827 5826 5824 5821 5820 5820 5819 5819 5818 5817 5816 5815
5807 5809 5811 5814 5815 5815 5817 5818 5818 5819 5819 5820 5821 5821 5822 5822 5822 5822 5823 5823 5824 5825 5825 5826 5826 5826 5826 5825 5825 5824 5823 5822 5821 5821 5817 5816 5816 5815 5814 5813 5812 5811 5809
5801 5803 5805 5807 5809 5810 5812 5812 5813 5814 5815 5815 5816 5817 5817 5818 5818 5818 5818 5819 5819 5819 5820 5820 5820 5820 5820 5820 5819 5818 5818 5816 5816 5815 5812 5812 5811 5810 5809 5807 5806 5805 5804
5795 5798 5799 5800 5802 5804 5806 5807 5808 5809 5810 5810 5811 5812 5813 5813 5813 5814 5814 5814 5814 5814 5814 5814 5814 5814 5814 5813 5813 5812 5811 5810 5810 5809 5807 5806 5805 5804 5803 5801 5800 5799 5797
5787 5791 5793 5793 5795 5797 5799 5801 5802 5803 5804 5805 5805 5806 5807 5808 5808 5809 5809 5809 5808 5808 5807 5808 5807 5807 5807 5806 5806 5805 5805 5804 5803 5802 5800 5799 5798 5797 5796 5794 5793 5791 5790
5781 5783 5786 5787 5789 5791 5792 5794 5795 5797 5798 5799 5800 5800 5802 5802 5803 5803 5803 5803 5802 5801 5801 5801 5801 5800 5800 5799 5799 5798 5797 5797 5795 5795 5792 5791 5790 5789 5788 5787 5785 5784 5782
5775 5776 5778 5781 5782 5784 5786 5787 5789 5790 5791 5792 5794 5794 5795 5796 5797 5797 5797 5796 5795 5795 5794 5794 5794 5793 5793 5792 5791 5791 5790 5789 5788 5786 5785 5783 5782 5781 5780 5778 5777 5775 5773
5769 5770 5771 5774 5776 5778 5779 5780 5782 5783 5784 5786 5787 5788 5789 5790 5790 5790 5790 5789 5788 5788 5787 5787 5787 5786 5785 5785 5784 5784 5783 5781 5779 5778 5777 5775 5774 5773 5771 5769 5767 5765 5763
5762 5763 5764 5767 5770 5771 5773 5774 5775 5776 5778 5780 5781 5782 5783 5783 5783 5783 5783 5782 5782 5781 5781 5780 5779 5778 5778 5778 5777 5776 5775 5773 5771 5770 5768 5767 5765 5764 5762 5760 5757 5755 5753
5755 5756 5757 5759 5763 5764 5766 5768 5769 5770 5771 5773 5774 5776 5776 5776 5777 5776 5776 5775 5774 5774 5774 5772 5771 5770 5770 5770 5770 5768 5767 5765 5763 5761 5759 5758 5756 5754 5751 5749 5747 5744 5742
5747 5748 5749 5751 5755 5757 5759 5761 5762 5762 5763 5765 5767 5769 5769 5770 5770 5769 5769 5768 5767 5767 5766 5765 5764 5762 5762 5761 5761 5760 5758 5756 5754 5752 5750 5747 5745 5743 5740 5738 5735 5732 5729
5738 5739 5741 5743 5746 5749 5752 5754 5754 5754 5756 5758 5760 5761 5762 5762 5762 5762 5761 5760 5760 5759 5758 5757 5756 5755 5753 5752 5751 5750 5749 5748 5745 5741 5739 5736 5733 5731 5728 5725 5722 5719 5716
5727 5729 5732 5734 5736 5739 5742 5744 5745 5748 5749 5751 5752 5753 5753 5754 5754 5755 5754 5753 5752 5751 5750 5749 5748 5747 5745 5743 5741 5740 5738 5736 5735 5732 5728 5724 5721 5718 5715 5711 5708 5704 5701
5716 5719 5721 5723 5725 5728 5732 5735 5738 5740 5742 5743 5743 5744 5745 5746 5746 5747 5746 5745 5744 5743 5742 5741 5739 5738 5736 5735 5732 5729 5727 5724 5722 5720 5717 5713 5709 5705 5702 5698 5693 5689 5684
5702 5706 5709 5712 5715 5718 5722 5725 5729 5731 5733 5734 5735 5736 5737 5737 5738 5738 5738 5737 5736 5735 5734 5732 5730 5728 5726 5725 5722 5719 5716 5713 5709 5707 5705 5702 5697 5693 5689 5685 5680 5676 5671
5687 5691 5695 5699 5703 5707 5712 5715 5719 5722 5724 5726 5727 5727 5728 5729 5730 5730 5729 5729 5728 5726 5725 5723 5721 5719 5716 5714 5711 5707 5704 5701 5697 5694 5692 5689 5686 5681 5676 5671 5666 5661 5656